Weather History for LTAU - October, 2012

Change the Weather History Date:

Tuesday, October 9, 2012

  Actual Average Record
Temperature  
Mean Temperature 54 °F -  
Max Temperature 66 °F 62 °F 86 °F (2003)
Min Temperature 43 °F 36 °F 28 °F (1998)
Degree Days  
Heating Degree Days 10    
Growing Degree Days 4 (Base 50)    
Moisture  
Dew Point 47 °F    
Average Humidity 75    
Maximum Humidity 94    
Minimum Humidity 36    
Precipitation  
Precipitation 0.00 in - - ()
Sea Level Pressure  
Sea Level Pressure 29.98 in    
Wind  
Wind Speed 2 mph ()    
Max Wind Speed 8 mph    
Max Gust Speed -    
Visibility 6.5 miles    
Events Rain    
Averages and records for this station are not official NWS values.
T = Trace of Precipitation, MM = Missing Value Source: Averaged Metar Reports

Daily Weather History Graph

Daily Weather History Graph

Search for Another Location

Airport or City:

Trip Planner

Search our weather history database for the weather conditions in past years. The results will help you decide how hot, cold, wet, or windy it might be!

Date:

Astronomy

Oct. 09, 2012 Rise Set
Actual Time 6:41 AM EEST 6:08 PM EEST
Civil Twilight 6:14 AM EEST 6:34 PM EEST
Nautical Twilight 5:44 AM EEST 7:05 PM EEST
Astronomical Twilight 5:13 AM EEST 7:36 PM EEST
Moon 12:01 AM EEST (10/9) 2:19 PM EEST (10/9)
Length of Visible Light 12h 19m
Length of Day
11h 26m
Last Quarter, 40% of the Moon is Illuminated
Oct 9
Last Quarter
Oct 15
New
Oct 22
First Quarter
Oct 29
Full
Nov 7
Last Quarter

Hourly Weather History & Observations

Time (EEST) Temp. Windchill Dew Point Humidity Pressure Visibility Wind Dir Wind Speed Gust Speed Precip Events Conditions
12:20 AM 50.0 °F - 46.4 °F 87% 29.95 in 6.2 mi Calm Calm - N/A   Scattered Clouds
12:50 AM 48.2 °F - 46.4 °F 93% 29.95 in 6.2 mi NNE 3.5 mph - N/A   Scattered Clouds
1:20 AM 48.2 °F - 46.4 °F 93% 29.95 in 6.2 mi NE 2.3 mph - N/A   Scattered Clouds
1:50 AM 50.0 °F - 46.4 °F 87% 29.95 in 6.2 mi NE 1.2 mph - N/A   Scattered Clouds
2:20 AM 48.2 °F - 46.4 °F 93% 29.95 in 6.2 mi Calm Calm - N/A   Scattered Clouds
2:50 AM 48.2 °F - 44.6 °F 87% 29.95 in 6.2 mi NNE 2.3 mph - N/A   Scattered Clouds
3:20 AM 46.4 °F 45.2 °F 44.6 °F 93% 29.95 in 6.2 mi North 3.5 mph - N/A   Scattered Clouds
3:50 AM 48.2 °F - 46.4 °F 93% 29.95 in 6.2 mi NNE 4.6 mph - N/A   Scattered Clouds
4:20 AM 46.4 °F - 44.6 °F 93% 29.95 in 6.2 mi Calm Calm - N/A   Scattered Clouds
4:50 AM 46.4 °F - 44.6 °F 93% 29.95 in 6.2 mi Calm Calm - N/A   Scattered Clouds
5:20 AM 44.6 °F - 42.8 °F 93% 29.95 in 6.2 mi NE 2.3 mph - N/A   Scattered Clouds
5:50 AM 46.4 °F - 44.6 °F 93% 29.95 in 6.2 mi ENE 2.3 mph - N/A   Scattered Clouds
6:20 AM 46.4 °F - 44.6 °F 93% 29.98 in 6.2 mi Calm Calm - N/A   Scattered Clouds
7:20 AM 48.2 °F - 46.4 °F 93% 29.98 in 6.2 mi Calm Calm - N/A   Mostly Cloudy
7:50 AM 50.0 °F - 48.2 °F 94% 29.98 in 6.2 mi Variable 1.2 mph - N/A   Mostly Cloudy
8:20 AM 51.8 °F - 48.2 °F 88% 30.01 in 6.2 mi NNE 3.5 mph - N/A   Mostly Cloudy
8:50 AM 55.4 °F - 48.2 °F 77% 30.01 in 6.2 mi NNE 1.2 mph - N/A   Mostly Cloudy
9:00 AM 55 °F - 49 °F 73%  in 12 mi NNE 1.2 mph - -   Partly Cloudy
9:20 AM 57.2 °F - 50.0 °F 77% 30.01 in 6.2 mi Calm Calm - N/A   Mostly Cloudy
9:50 AM 60.8 °F - 50.0 °F 68% 30.01 in 6.2 mi Calm Calm - N/A   Mostly Cloudy
10:20 AM 62.6 °F - 48.2 °F 59% 30.01 in 6.2 mi Variable 1.2 mph - N/A   Mostly Cloudy
10:50 AM 64.4 °F - 48.2 °F 56% 30.01 in 6.2 mi Calm Calm - N/A   Mostly Cloudy
11:20 AM 64.4 °F - 48.2 °F 56% 29.98 in 6.2 mi Variable 1.2 mph - N/A   Mostly Cloudy
11:50 AM 64.4 °F - 48.2 °F 56% 29.98 in 6.2 mi Variable 1.2 mph - N/A   Mostly Cloudy
12:20 PM 64.4 °F - 46.4 °F 52% 29.98 in 6.2 mi Calm Calm - N/A   Mostly Cloudy
12:50 PM 64.4 °F - 46.4 °F 52% 29.98 in 6.2 mi West 4.6 mph - N/A   Mostly Cloudy
1:20 PM 66.2 °F - 44.6 °F 46% 29.98 in 6.2 mi WNW 6.9 mph - N/A   Mostly Cloudy
1:50 PM 64.4 °F - 42.8 °F 45% 29.98 in 6.2 mi NW 6.9 mph - N/A   Mostly Cloudy
2:20 PM 66.2 °F - 42.8 °F 43% 29.95 in 6.2 mi WNW 8.1 mph - N/A   Mostly Cloudy
2:50 PM 64.4 °F - 44.6 °F 49% 29.98 in 6.2 mi WNW 6.9 mph - N/A   Mostly Cloudy
3:00 PM 64 °F - 44 °F 36%  in 12 mi WNW 5.8 mph - -   Partly Cloudy
3:20 PM 62.6 °F - 46.4 °F 55% 29.98 in 6.2 mi West 6.9 mph - N/A Rain Light Rain Showers
3:50 PM 60.8 °F - 50.0 °F 68% 29.98 in 6.2 mi SSW 3.5 mph - N/A   Mostly Cloudy
4:20 PM 59.0 °F - 51.8 °F 77% 29.98 in 6.2 mi South 4.6 mph - N/A   Mostly Cloudy
4:50 PM 59.0 °F - 50.0 °F 72% 29.98 in 6.2 mi SSE 5.8 mph - N/A   Mostly Cloudy
5:20 PM 59.0 °F - 50.0 °F 72% 29.98 in 6.2 mi SSE 4.6 mph - N/A   Mostly Cloudy
5:50 PM 59.0 °F - 46.4 °F 63% 29.98 in 6.2 mi SE 4.6 mph - N/A   Mostly Cloudy
6:20 PM 59.0 °F - 46.4 °F 63% 29.98 in 6.2 mi SE 3.5 mph - N/A Rain Light Rain Showers
6:50 PM 57.2 °F - 46.4 °F 67% 29.98 in 6.2 mi Calm Calm - N/A   Mostly Cloudy
7:20 PM 57.2 °F - 48.2 °F 72% 30.01 in 6.2 mi NE 3.5 mph - N/A   Mostly Cloudy
7:50 PM 57.2 °F - 48.2 °F 72% 30.01 in 6.2 mi Variable 1.2 mph - N/A   Mostly Cloudy
8:20 PM 55.4 °F - 48.2 °F 77% 30.01 in 6.2 mi East 4.6 mph - N/A   Mostly Cloudy
8:50 PM 53.6 °F - 48.2 °F 82% 30.01 in 6.2 mi NE 3.5 mph - N/A   Scattered Clouds
9:00 PM 54 °F - 49 °F 76%  in 12 mi NE 3.5 mph - -   Partly Cloudy
9:20 PM 51.8 °F - 48.2 °F 88% 30.01 in 6.2 mi Calm Calm - N/A   Scattered Clouds
9:50 PM 51.8 °F - 48.2 °F 88% 30.01 in 6.2 mi Variable 1.2 mph - N/A   Scattered Clouds
10:20 PM 51.8 °F - 48.2 °F 88% 30.01 in 6.2 mi NE 3.5 mph - N/A   Scattered Clouds
10:50 PM 50.0 °F - 48.2 °F 94% 30.01 in 6.2 mi NE 2.3 mph - N/A   Scattered Clouds
11:20 PM 51.8 °F - 48.2 °F 88% 30.01 in 6.2 mi NE 4.6 mph - N/A   Mostly Cloudy
11:50 PM 51.8 °F - 48.2 °F 88% 30.01 in 6.2 mi NE 3.5 mph - N/A   Mostly Cloudy